• In Deutschland
  • Länderverzeichnis
  • Für 7 Tage
  • Wassertemperatur
  • Satellitenkarten
  • Wetterkarte
  • Widgets
  • user-avatar
    Anmelden

    Stündliche Wetter Nachiczewan

    Heute, 17 Juli, Dienstag

    Zeit Temperatur Niederschläge Wind Luftdruck Luftfeuchtigkeit
    00:00 +28°C° 0 mm 2 m/S 683 mmHg 45%
    01:00 +27°C° 0 mm 2 m/S 682 mmHg 47%
    02:00 +27°C° 0 mm 2 m/S 682 mmHg 50%
    03:00 +26°C° 0 mm 2 m/S 682 mmHg 55%
    04:00 +26°C° 0 mm 2 m/S 682 mmHg 54%
    05:00 +26°C° 0 mm 2 m/S 682 mmHg 54%
    06:00 +26°C° 0 mm 2 m/S 683 mmHg 53%
    07:00 +27°C° 0 mm 2 m/S 683 mmHg 49%
    08:00 +28°C° 0 mm 2 m/S 683 mmHg 45%
    09:00 +29°C° 0 mm 2 m/S 683 mmHg 40%
    10:00 +31°C° 0 mm 2 m/S 683 mmHg 38%
    11:00 +32°C° 0 mm 2 m/S 683 mmHg 35%
    12:00 +34°C° 0 mm 3 m/S 682 mmHg 32%
    13:00 +34°C° 0,5 mm 3 m/S 682 mmHg 32%
    14:00 +34°C° 0,5 mm 3 m/S 682 mmHg 32%
    15:00 +34°C° 0,5 mm 3 m/S 682 mmHg 32%
    16:00 +33°C° 0,7 mm 3 m/S 682 mmHg 37%
    17:00 +32°C° 0,7 mm 4 m/S 682 mmHg 42%
    18:00 +29°C° 0,7 mm 4 m/S 682 mmHg 48%
    19:00 +29°C° 0 mm 3 m/S 682 mmHg 49%
    20:00 +28°C° 0 mm 3 m/S 683 mmHg 51%
    21:00 +27°C° 0 mm 2 m/S 683 mmHg 52%
    22:00 +27°C° 0 mm 2 m/S 683 mmHg 54%
    23:00 +26°C° 0 mm 2 m/S 683 mmHg 55%

    Morgen, 18 Juli, Mittwoch

    Zeit Temperatur Niederschläge Wind Luftdruck Luftfeuchtigkeit
    00:00 +26°C° 0 mm 2 m/S 684 mmHg 57%
    01:00 +26°C° 0 mm 2 m/S 684 mmHg 58%
    02:00 +25°C° 0 mm 1 m/S 683 mmHg 59%
    03:00 +25°C° 0 mm 1 m/S 683 mmHg 60%
    04:00 +25°C° 0 mm 1 m/S 683 mmHg 59%
    05:00 +25°C° 0 mm 1 m/S 683 mmHg 57%
    06:00 +25°C° 0 mm 2 m/S 683 mmHg 56%
    07:00 +27°C° 0 mm 1 m/S 683 mmHg 50%
    08:00 +28°C° 0 mm 1 m/S 683 mmHg 44%
    09:00 +30°C° 0 mm 1 m/S 683 mmHg 38%
    10:00 +31°C° 0 mm 1 m/S 683 mmHg 34%
    11:00 +32°C° 0 mm 2 m/S 683 mmHg 31%
    12:00 +35°C° 0 mm 2 m/S 683 mmHg 28%
    13:00 +36°C° 0 mm 2 m/S 682 mmHg 26%
    14:00 +37°C° 0 mm 2 m/S 682 mmHg 25%
    15:00 +38°C° 0 mm 3 m/S 682 mmHg 23%
    16:00 +38°C° 0 mm 3 m/S 682 mmHg 23%
    17:00 +38°C° 0 mm 3 m/S 681 mmHg 23%
    18:00 +38°C° 0 mm 3 m/S 681 mmHg 24%
    19:00 +36°C° 0 mm 3 m/S 682 mmHg 28%
    20:00 +34°C° 0 mm 3 m/S 682 mmHg 32%
    21:00 +33°C° 0 mm 3 m/S 682 mmHg 36%
    22:00 +31°C° 0 mm 3 m/S 682 mmHg 37%
    23:00 +30°C° 0 mm 2 m/S 682 mmHg 39%

    übermorgen, 19 Juli, Donnerstag

    Zeit Temperatur Niederschläge Wind Luftdruck Luftfeuchtigkeit
    00:00 +29°C° 0 mm 2 m/S 682 mmHg 41%
    01:00 +29°C° 0 mm 2 m/S 682 mmHg 42%
    02:00 +28°C° 0 mm 2 m/S 682 mmHg 43%
    03:00 +28°C° 0 mm 1 m/S 682 mmHg 44%
    04:00 +28°C° 0 mm 1 m/S 682 mmHg 43%
    05:00 +28°C° 0 mm 1 m/S 682 mmHg 42%
    06:00 +29°C° 0 mm 1 m/S 682 mmHg 42%
    07:00 +30°C° 0 mm 1 m/S 682 mmHg 37%
    08:00 +32°C° 0 mm 1 m/S 683 mmHg 33%
    09:00 +33°C° 0 mm 1 m/S 683 mmHg 29%
    10:00 +35°C° 0 mm 1 m/S 683 mmHg 26%
    11:00 +37°C° 0 mm 2 m/S 683 mmHg 23%
    12:00 +38°C° 0 mm 2 m/S 682 mmHg 20%
    13:00 +39°C° 0 mm 2 m/S 682 mmHg 18%
    14:00 +40°C° 0 mm 3 m/S 682 mmHg 16%
    15:00 +42°C° 0 mm 3 m/S 682 mmHg 13%
    16:00 +42°C° 0 mm 3 m/S 682 mmHg 13%
    17:00 +42°C° 0 mm 3 m/S 682 mmHg 13%
    18:00 +40°C° 0 mm 3 m/S 682 mmHg 12%
    19:00 +38°C° 0 mm 3 m/S 682 mmHg 17%
    20:00 +36°C° 0 mm 3 m/S 682 mmHg 21%
    21:00 +34°C° 0 mm 3 m/S 682 mmHg 25%
    22:00 +33°C° 0 mm 3 m/S 682 mmHg 29%
    23:00 +31°C° 0 mm 3 m/S 682 mmHg 32%

    20 Juli, Freitag

    Zeit Temperatur Niederschläge Wind Luftdruck Luftfeuchtigkeit
    00:00 +31°C° 0 mm 2 m/S 682 mmHg 35%
    01:00 +30°C° 0 mm 2 m/S 682 mmHg 37%
    02:00 +29°C° 0 mm 2 m/S 682 mmHg 39%
    03:00 +28°C° 0 mm 2 m/S 682 mmHg 40%
    04:00 +29°C° 0 mm 2 m/S 682 mmHg 40%
    05:00 +29°C° 0 mm 2 m/S 682 mmHg 40%
    06:00 +29°C° 0 mm 1 m/S 682 mmHg 40%
    07:00 +31°C° 0 mm 1 m/S 682 mmHg 35%
    08:00 +32°C° 0 mm 1 m/S 682 mmHg 30%
    09:00 +34°C° 0 mm 1 m/S 682 mmHg 25%
    10:00 +35°C° 0 mm 1 m/S 682 mmHg 22%
    11:00 +38°C° 0 mm 2 m/S 682 mmHg 19%
    12:00 +39°C° 0 mm 2 m/S 682 mmHg 16%
    13:00 +40°C° 0 mm 2 m/S 681 mmHg 14%
    14:00 +41°C° 0 mm 2 m/S 681 mmHg 12%
    15:00 +43°C° 0 mm 3 m/S 681 mmHg 11%
    16:00 +42°C° 0 mm 3 m/S 681 mmHg 10%
    17:00 +42°C° 0 mm 3 m/S 681 mmHg 9%
    18:00 +42°C° 0 mm 3 m/S 681 mmHg 9%
    19:00 +39°C° 0 mm 3 m/S 681 mmHg 14%
    20:00 +37°C° 0 mm 3 m/S 681 mmHg 19%
    21:00 +34°C° 0 mm 4 m/S 681 mmHg 24%
    22:00 +33°C° 0 mm 3 m/S 681 mmHg 28%
    23:00 +31°C° 0 mm 3 m/S 681 mmHg 32%

    21 Juli, Samstag

    Zeit Temperatur Niederschläge Wind Luftdruck Luftfeuchtigkeit
    00:00 +31°C° 0 mm 3 m/S 681 mmHg 37%
    01:00 +30°C° 0 mm 3 m/S 681 mmHg 38%
    02:00 +29°C° 0 mm 2 m/S 681 mmHg 40%
    03:00 +29°C° 0 mm 2 m/S 681 mmHg 42%
    04:00 +29°C° 0 mm 2 m/S 681 mmHg 42%
    05:00 +29°C° 0 mm 2 m/S 681 mmHg 42%
    06:00 +29°C° 0 mm 2 m/S 682 mmHg 41%
    07:00 +31°C° 0 mm 2 m/S 682 mmHg 38%
    08:00 +32°C° 0 mm 2 m/S 682 mmHg 34%
    09:00 +34°C° 0 mm 2 m/S 682 mmHg 30%
    10:00 +36°C° 0 mm 2 m/S 682 mmHg 27%
    11:00 +37°C° 0 mm 2 m/S 681 mmHg 23%
    12:00 +38°C° 0 mm 2 m/S 681 mmHg 20%
    13:00 +39°C° 0 mm 2 m/S 681 mmHg 18%
    14:00 +40°C° 0 mm 3 m/S 681 mmHg 17%
    15:00 +42°C° 0 mm 3 m/S 680 mmHg 15%
    16:00 +40°C° 0 mm 3 m/S 680 mmHg 15%
    17:00 +41°C° 0 mm 4 m/S 680 mmHg 16%
    18:00 +41°C° 0 mm 4 m/S 680 mmHg 16%
    19:00 +38°C° 0 mm 4 m/S 680 mmHg 22%
    20:00 +36°C° 0 mm 4 m/S 681 mmHg 27%
    21:00 +34°C° 0 mm 3 m/S 681 mmHg 33%
    22:00 +33°C° 0 mm 3 m/S 681 mmHg 36%
    23:00 +31°C° 0 mm 3 m/S 681 mmHg 40%

    22 Juli, Sonntag

    Zeit Temperatur Niederschläge Wind Luftdruck Luftfeuchtigkeit
    00:00 +30°C° 0 mm 3 m/S 681 mmHg 43%
    01:00 +30°C° 0 mm 3 m/S 681 mmHg 45%
    02:00 +29°C° 0 mm 2 m/S 681 mmHg 47%
    03:00 +29°C° 0 mm 2 m/S 681 mmHg 49%
    04:00 +29°C° 0 mm 2 m/S 681 mmHg 48%
    05:00 +29°C° 0 mm 2 m/S 681 mmHg 47%
    06:00 +29°C° 0 mm 2 m/S 681 mmHg 47%
    07:00 +30°C° 0 mm 2 m/S 681 mmHg 42%
    08:00 +32°C° 0 mm 2 m/S 681 mmHg 38%
    09:00 +34°C° 0 mm 2 m/S 681 mmHg 33%
    10:00 +35°C° 0 mm 2 m/S 681 mmHg 29%
    11:00 +37°C° 0 mm 3 m/S 681 mmHg 25%
    12:00 +38°C° 0 mm 3 m/S 681 mmHg 21%
    13:00 +39°C° 0 mm 3 m/S 680 mmHg 19%
    14:00 +41°C° 0 mm 4 m/S 680 mmHg 18%
    15:00 +42°C° 0 mm 4 m/S 680 mmHg 16%
    16:00 +41°C° 0 mm 4 m/S 680 mmHg 16%
    17:00 +41°C° 0 mm 4 m/S 680 mmHg 16%
    18:00 +41°C° 0 mm 4 m/S 680 mmHg 16%
    19:00 +38°C° 0 mm 4 m/S 680 mmHg 20%
    20:00 +36°C° 0 mm 4 m/S 680 mmHg 25%
    21:00 +34°C° 0 mm 4 m/S 680 mmHg 30%
    22:00 +33°C° 0 mm 3 m/S 680 mmHg 32%
    23:00 +31°C° 0 mm 3 m/S 680 mmHg 35%
    Mehr zeigen